Weather History for Claremore, OK

Change the Weather History Date:

Tuesday, September 18, 2012

  Actual Average (KTUL) Record (KTUL)
Temperature  
Mean Temperature 62 °F 72 °F  
Max Temperature 73 °F 83 °F 100 °F (1952)
Min Temperature 50 °F 61 °F 42 °F (1981)
Degree Days  
Heating Degree Days 4 1  
Month to date heating degree days 4  
Since 1 July heating degree days 4  
Cooling Degree Days 0 8  
Month to date cooling degree days 194  
Year to date cooling degree days 1895  
Growing Degree Days 12 (Base 50)    
Moisture  
Dew Point 49 °F    
Average Humidity 65    
Maximum Humidity 94    
Minimum Humidity 35    
Precipitation  
Precipitation 0.15 in 0.15 in 2.39 in (1971)
Month to date precipitation 2.56  
Year to date precipitation 30.04  
Sea Level Pressure  
Sea Level Pressure 30.09 in    
Wind  
Wind Speed 8 mph (NNE)    
Max Wind Speed 16 mph    
Max Gust Speed 22 mph    
Visibility 10 miles    
Events Rain , Thunderstorm    
T = Trace of Precipitation, MM = Missing Value Source: NWS Daily Summary

Daily Weather History Graph

Daily Weather History Graph

Search for Another Location

Airport:

Trip Planner

Search our weather history database for the weather conditions in past years. The results will help you decide how hot, cold, wet, or windy it might be!

Date:

Astronomy

Sep. 18, 2012 Rise Set
Actual Time 7:07 AM CDT 7:23 PM CDT
Civil Twilight 6:41 AM CDT 7:49 PM CDT
Nautical Twilight 6:11 AM CDT 8:19 PM CDT
Astronomical Twilight 5:40 AM CDT 8:50 PM CDT
Moon 10:00 AM CDT (9/18) 8:55 PM CDT (9/18)
Length of Visible Light 13h 08m
Length of Day
12h 16m
Waxing Crescent, 9% of the Moon is Illuminated
Sep 18
Waxing Crescent
Sep 22
First Quarter
Sep 29
Full
Oct 8
Last Quarter
Oct 15
New

Hourly Weather History & Observations

Time (CDT) Temp. Dew Point Humidity Pressure Visibility Wind Dir Wind Speed Gust Speed Precip Events Conditions
12:15 AM 64.4 °F 60.8 °F 88% 29.96 in 10.0 mi NNE 16.1 mph 19.6 mph N/A   Mostly Cloudy
12:35 AM 62.6 °F 59.0 °F 88% 29.98 in 10.0 mi North 15.0 mph 21.9 mph N/A Rain Light Rain
12:55 AM 62.6 °F 59.0 °F 88% 29.98 in 10.0 mi North 13.8 mph 19.6 mph N/A Rain Rain
1:15 AM 60.8 °F 59.0 °F 94% 29.99 in 4.0 mi North 11.5 mph 18.4 mph 0.08 in Rain Rain
1:35 AM 60.8 °F 57.2 °F 88% 30.00 in 10.0 mi North 12.7 mph 19.6 mph 0.08 in   Mostly Cloudy
1:55 AM 59.0 °F 57.2 °F 94% 30.00 in 10.0 mi NNE 12.7 mph 21.9 mph 0.08 in   Scattered Clouds
2:15 AM 59.0 °F 55.4 °F 88% 30.00 in 10.0 mi NNE 11.5 mph 20.7 mph N/A   Scattered Clouds
2:35 AM 59.0 °F 55.4 °F 88% 30.01 in 10.0 mi NNE 8.1 mph - N/A   Scattered Clouds
2:55 AM 60.8 °F 55.4 °F 82% 30.02 in 10.0 mi North 6.9 mph 17.3 mph N/A Thunderstorm Thunderstorm
3:15 AM 59.0 °F 55.4 °F 88% 30.03 in 4.0 mi North 6.9 mph - 0.07 in Rain , Thunderstorm Thunderstorms and Rain
4:15 AM 55.4 °F 53.6 °F 94% 30.04 in 10.0 mi NNE 8.1 mph - N/A   Scattered Clouds
4:35 AM 55.4 °F 51.8 °F 88% 30.05 in 10.0 mi NNE 10.4 mph - N/A   Scattered Clouds
4:55 AM 55.4 °F 50.0 °F 82% 30.06 in 10.0 mi NNE 11.5 mph - N/A   Scattered Clouds
5:15 AM 53.6 °F 48.2 °F 82% 30.06 in 10.0 mi NNE 8.1 mph - N/A   Clear
5:35 AM 53.6 °F 48.2 °F 82% 30.07 in 10.0 mi NNE 6.9 mph - N/A   Scattered Clouds
5:55 AM 53.6 °F 48.2 °F 82% 30.06 in 10.0 mi NE 5.8 mph - N/A   Scattered Clouds
6:15 AM 53.6 °F 48.2 °F 82% 30.07 in 10.0 mi NNE 6.9 mph - N/A   Scattered Clouds
6:35 AM 51.8 °F 48.2 °F 88% 30.08 in 10.0 mi NNE 5.8 mph - N/A   Clear
7:15 AM 50.0 °F 46.4 °F 87% 30.08 in 10.0 mi NNE 3.5 mph - N/A   Clear
7:35 AM 50.0 °F 48.2 °F 94% 30.08 in 10.0 mi Calm Calm - N/A   Clear
7:55 AM 51.8 °F 50.0 °F 94% 30.09 in 10.0 mi NNE 3.5 mph - N/A   Clear
8:15 AM 53.6 °F 50.0 °F 88% 30.10 in 10.0 mi NNE 4.6 mph - N/A   Clear
8:35 AM 55.4 °F 50.0 °F 82% 30.11 in 10.0 mi NNE 5.8 mph - N/A   Clear
9:15 AM 59.0 °F 50.0 °F 72% 30.12 in 10.0 mi NNE 6.9 mph - N/A   Clear
10:15 AM 60.8 °F 46.4 °F 59% 30.15 in 10.0 mi North 4.6 mph - N/A   Clear
10:35 AM 62.6 °F 46.4 °F 55% 30.15 in 10.0 mi North 3.5 mph - N/A   Clear
11:15 AM 66.2 °F 46.4 °F 49% 30.16 in 10.0 mi NNE 5.8 mph - N/A   Clear
11:35 AM 66.2 °F 44.6 °F 46% 30.17 in 10.0 mi NNE 9.2 mph - N/A   Clear
11:55 AM 68.0 °F 44.6 °F 43% 30.17 in 10.0 mi ENE 8.1 mph - N/A   Clear
12:15 PM 68.0 °F 41.0 °F 37% 30.17 in 10.0 mi NNE 10.4 mph - N/A   Clear
12:35 PM 68.0 °F 44.6 °F 43% 30.16 in 10.0 mi North 8.1 mph - N/A   Clear
12:55 PM 69.8 °F 44.6 °F 40% 30.16 in 10.0 mi NNE 9.2 mph - N/A   Clear
1:15 PM 69.8 °F 44.6 °F 40% 30.16 in 10.0 mi North 5.8 mph - N/A   Clear
1:35 PM 69.8 °F 44.6 °F 40% 30.15 in 10.0 mi North 5.8 mph - N/A   Clear
1:55 PM 69.8 °F 44.6 °F 40% 30.14 in 10.0 mi Calm Calm - N/A   Clear
2:15 PM 69.8 °F 44.6 °F 40% 30.13 in 10.0 mi Calm Calm - N/A   Clear
2:35 PM 71.6 °F 44.6 °F 38% 30.12 in 10.0 mi NE 4.6 mph - N/A   Clear
2:55 PM 71.6 °F 42.8 °F 35% 30.12 in 10.0 mi NNE 10.4 mph - N/A   Clear
3:15 PM 71.6 °F 42.8 °F 35% 30.12 in 10.0 mi NNE 8.1 mph - N/A   Clear
3:35 PM 71.6 °F 42.8 °F 35% 30.11 in 10.0 mi NNE 8.1 mph - N/A   Clear
3:55 PM 71.6 °F 42.8 °F 35% 30.11 in 10.0 mi NE 4.6 mph - N/A   Clear
4:15 PM 73.4 °F 44.6 °F 36% 30.10 in 10.0 mi North 6.9 mph - N/A   Clear
4:35 PM 71.6 °F 42.8 °F 35% 30.10 in 10.0 mi Calm Calm - N/A   Clear
5:15 PM 71.6 °F 42.8 °F 35% 30.09 in 10.0 mi NNE 3.5 mph - N/A   Clear
5:35 PM 71.6 °F 42.8 °F 35% 30.09 in 10.0 mi NNW 4.6 mph - N/A   Clear
5:55 PM 71.6 °F 42.8 °F 35% 30.09 in 10.0 mi Calm Calm - N/A   Clear
6:15 PM 71.6 °F 44.6 °F 38% 30.09 in 10.0 mi Calm Calm - N/A   Clear
6:35 PM 71.6 °F 42.8 °F 35% 30.09 in 10.0 mi Calm Calm - N/A   Clear
6:55 PM 71.6 °F 44.6 °F 38% 30.09 in 10.0 mi Calm Calm - N/A   Clear
7:15 PM 68.0 °F 46.4 °F 46% 30.09 in 10.0 mi East 4.6 mph - N/A   Clear
7:35 PM 64.4 °F 48.2 °F 56% 30.09 in 10.0 mi ESE 5.8 mph - N/A   Clear
7:55 PM 64.4 °F 48.2 °F 56% 30.09 in 10.0 mi ESE 5.8 mph - N/A   Clear
8:35 PM 60.8 °F 50.0 °F 68% 30.10 in 10.0 mi SE 6.9 mph - N/A   Clear
8:55 PM 60.8 °F 48.2 °F 63% 30.10 in 10.0 mi SE 5.8 mph - N/A   Clear
9:15 PM 59.0 °F 50.0 °F 72% 30.11 in 10.0 mi SE 5.8 mph - N/A   Clear
9:35 PM 60.8 °F 50.0 °F 68% 30.11 in 10.0 mi SE 5.8 mph - N/A   Clear
9:55 PM 57.2 °F 50.0 °F 77% 30.11 in 10.0 mi ESE 3.5 mph - N/A   Clear
10:15 PM 57.2 °F 50.0 °F 77% 30.12 in 10.0 mi Calm Calm - N/A   Clear
10:35 PM 57.2 °F 50.0 °F 77% 30.12 in 10.0 mi Calm Calm - N/A   Clear
10:55 PM 55.4 °F 50.0 °F 82% 30.12 in 10.0 mi Calm Calm - N/A   Clear
11:15 PM 55.4 °F 50.0 °F 82% 30.12 in 10.0 mi SE 6.9 mph - N/A   Clear
11:35 PM 55.4 °F 50.0 °F 82% 30.11 in 10.0 mi SSE 6.9 mph - N/A   Clear
11:55 PM 55.4 °F 50.0 °F 82% 30.11 in 10.0 mi SSE 6.9 mph - N/A   Clear